Location: Beuerbach
(48.1459°N, 10.9174°E)
Time: 21:59:30
(UTC+00:00)

SL-16 R/B - Pass Details

Date: 09 August 2024
Orbit: 842 x 845 km, 71.0° (Epoch: 07 September)

Event Time Altitude Azimuth Distance (km) Brightness Sun altitude
Exits shadow 01:11:16 21° 268° (W) 1,793 3.6 -21.6°
Maximum altitude 01:13:54 31° 312° (NW) 1,451 3.5 -21.4°
Drops below altitude 10° 01:18:55 10° 13° (NNE) 2,476 5.7 -21.0°
Sets 01:21:40 0° 24° (NNE) 3,415 6.9 -20.7°
